XMM-NEWTON (25989 NORAD) Tracking and Keplerian Element Data

This shows tracking and keplerian element data for the satellite.

Feedback or suggestion? Click here.




ElementValue
Catalog25989
NameXMM-NEWTON
Epoch Orbit2303
Epoch Day231.44887781
Epoch Year2018
RAAN343.9875
Inclination70.4078
Eccentricity0.7933839
Argument of Perigee95.8054
Mean Anonmoly0.5293
Mean Motion0.50136705
Decay Rate-1.67E-06
L11 25989U 99066A 18231.44887781 -.00000167 00000-0 00000+0 0 9999
L22 25989 70.4078 343.9875 7933839 95.8054 0.5293 0.50136705 23037

Live tracking and technical data element details for XMM-NEWTON (NORAD 25989). XMM-NEWTON can be tracked NOW for your location showing map with azimuth and elevation plus other details from your city location.

Track the satellite on the map from your city or location and see movement details for azimuth, elevation, latitude, longitude, range, height, and movement on the map or in text.







IsCatalogInMostPopularTable: catalog: 25989, numindb: 41
Update: records affected: 1



GetName: 25989 XMM-NEWTON

Hit Count: updated at: Mon, 20 Aug 2018 00:43:47 GMT